QPF
0.00 0.00 0.00 0.00 0.00 0.00 0.00 0.00 0.00 0.00 0.01 0.01 0.00 0.00 0.00 0.01 0.01 0.01 0.01 0.01 0.00 0.00 0.00 0.00 0.00 0.00 0.00 0.00 0.01 0.01 0.02 0.01 0.01 0.02 0.03 0.03 0.02 0.01 0.01 0.01 0.02 0.03 0.03 0.03
0.00 0.00 0.00 0.00 0.00 0.00 0.00 0.00 0.00 0.00 0.00 0.00 0.00 0.01 0.00 0.00 0.01 0.01 0.01 0.01 0.00 0.00 0.00 0.00 0.00 0.00 0.00 0.00 0.01 0.01 0.02 0.02 0.01 0.02 0.03 0.02 0.02 0.02 0.02 0.01 0.02 0.02 0.02 0.03
0.00 0.00 0.00 0.00 0.00 0.00 0.00 0.00 0.00 0.00 0.00 0.00 0.00 0.00 0.00 0.00 0.00 0.00 0.00 0.00 0.01 0.00 0.00 0.00 0.00 0.00 0.00 0.00 0.00 0.01 0.01 0.01 0.01 0.02 0.02 0.02 0.02 0.03 0.02 0.01 0.01 0.02 0.02 0.03
0.00 0.00 0.00 0.00 0.00 0.00 0.00 0.00 0.00 0.00 0.00 0.00 0.00 0.00 0.00 0.00 0.00 0.00 0.00 0.00 0.00 0.00 0.00 0.00 0.01 0.01 0.00 0.00 0.00 0.01 0.01 0.01 0.01 0.01 0.01 0.02 0.03 0.02 0.02 0.02 0.02 0.02 0.02 0.02
0.00 0.00 0.00 0.00 0.00 0.00 0.00 0.00 0.00 0.00 0.00 0.00 0.00 0.00 0.00 0.00 0.00 0.00 0.00 0.00 0.00 0.00 0.00 0.01 0.01 0.01 0.01 0.00 0.01 0.01 0.01 0.01 0.01 0.01 0.01 0.01 0.02 0.02 0.02 0.02 0.02 0.01 0.02 0.02
0.00 0.00 0.00 0.00 0.00 0.00 0.00 0.00 0.00 0.00 0.00 0.00 0.01 0.00 0.01 0.00 0.00 0.00 0.00 0.00 0.00 0.00 0.01 0.01 0.01 0.02 0.01 0.01 0.01 0.00 0.00 0.01 0.01 0.01 0.01 0.01 0.01 0.02 0.03 0.03 0.02 0.01 0.02 0.02
0.00 0.00 0.00 0.00 0.00 0.00 0.00 0.00 0.00 0.00 0.00 0.00 0.00 0.00 0.00 0.00 0.00 0.00 0.00 0.01 0.01 0.01 0.01 0.01 0.01 0.02 0.03 0.02 0.01 0.01 0.01 0.01 0.01 0.01 0.01 0.02 0.03 0.03 0.03 0.03 0.03 0.02 0.02 0.03
0.00 0.00 0.00 0.00 0.00 0.00 0.00 0.00 0.00 0.00 0.00 0.00 0.00 0.00 0.00 0.00 0.00 0.00 0.01 0.01 0.01 0.01 0.01 0.01 0.02 0.02 0.02 0.02 0.02 0.01 0.02 0.02 0.02 0.02 0.01 0.02 0.03 0.03 0.03 0.04 0.04 0.03 0.03 0.02
0.00 0.00 0.00 0.00 0.00 0.00 0.00 0.00 0.00 0.00 0.00 0.00 0.00 0.00 0.00 0.00 0.00 0.00 0.00 0.00 0.00 0.01 0.01 0.02 0.03 0.03 0.03 0.03 0.03 0.03 0.03 0.04 0.03 0.03 0.02 0.02 0.03 0.03 0.04 0.04 0.04 0.03 0.03 0.02
0.01 0.00 0.00 0.00 0.00 0.00 0.00 0.01 0.01 0.00 0.00 0.00 0.00 0.00 0.00 0.00 0.00 0.00 0.00 0.00 0.00 0.01 0.02 0.03 0.04 0.04 0.04 0.05 0.04 0.04 0.04 0.04 0.04 0.04 0.02 0.03 0.03 0.03 0.03 0.03 0.03 0.04 0.04 0.04
0.02 0.01 0.00 0.01 0.00 0.00 0.00 0.00 0.00 0.00 0.00 0.00 0.00 0.00 0.00 0.00 0.00 0.01 0.00 0.00 0.00 0.01 0.02 0.02 0.03 0.03 0.04 0.05 0.05 0.05 0.04 0.05 0.04 0.04 0.03 0.04 0.04 0.03 0.03 0.03 0.03 0.03 0.03 0.03
0.03 0.02 0.02 0.02 0.01 0.01 0.00 0.00 0.00 0.00 0.00 0.00 0.00 0.00 0.00 0.00 0.00 0.00 0.00 0.00 0.00 0.01 0.01 0.02 0.02 0.02 0.02 0.03 0.05 0.08 0.07 0.07 0.06 0.05 0.05 0.04 0.04 0.05 0.04 0.04 0.03 0.02 0.02 0.03
0.04 0.02 0.02 0.01 0.01 0.02 0.01 0.01 0.00 0.00 0.00 0.00 0.00 0.00 0.00 0.00 0.00 0.00 0.00 0.00 0.01 0.01 0.01 0.02 0.02 0.02 0.01 0.02 0.03 0.05 0.05 0.05 0.05 0.04 0.05 0.04 0.04 0.04 0.04 0.03 0.03 0.02 0.02 0.02
0.04 0.03 0.02 0.02 0.02 0.02 0.02 0.01 0.01 0.00 0.00 0.00 0.00 0.00 0.01 0.01 0.01 0.01 0.00 0.00 0.00 0.01 0.02 0.03 0.02 0.02 0.02 0.02 0.03 0.04 0.05 0.05 0.04 0.04 0.03 0.03 0.03 0.04 0.03 0.03 0.02 0.02 0.02 0.02
0.04 0.03 0.03 0.02 0.02 0.01 0.01 0.01 0.01 0.01 0.00 0.00 0.00 0.01 0.01 0.01 0.01 0.01 0.01 0.01 0.01 0.01 0.02 0.03 0.03 0.03 0.02 0.02 0.02 0.03 0.03 0.04 0.05 0.04 0.04 0.03 0.03 0.02 0.03 0.03 0.02 0.02 0.01 0.02
0.02 0.02 0.03 0.02 0.02 0.02 0.01 0.01 0.01 0.01 0.01 0.01 0.01 0.01 0.01 0.01 0.01 0.01 0.01 0.01 0.01 0.03 0.02 0.03 0.04 0.04 0.04 0.04 0.03 0.03 0.03 0.04 0.04 0.03 0.03 0.03 0.02 0.02 0.02 0.03 0.03 0.03 0.02 0.02
0.03 0.03 0.04 0.03 0.02 0.02 0.01 0.01 0.01 0.01 0.01 0.01 0.01 0.00 0.00 0.00 0.00 0.01 0.01 0.01 0.02 0.03 0.03 0.03 0.04 0.04 0.04 0.04 0.03 0.03 0.03 0.04 0.04 0.04 0.03 0.03 0.02 0.02 0.02 0.03 0.03 0.03 0.02 0.02
0.03 0.04 0.06 0.04 0.03 0.03 0.02 0.02 0.02 0.01 0.01 0.01 0.01 0.01 0.01 0.00 0.00 0.01 0.01 0.01 0.01 0.02 0.02 0.03 0.05 0.06 0.05 0.04 0.03 0.03 0.03 0.03 0.03 0.03 0.04 0.03 0.03 0.03 0.03 0.04 0.03 0.03 0.03 0.02
0.04 0.06 0.06 0.04 0.04 0.04 0.03 0.02 0.02 0.01 0.01 0.01 0.01 0.01 0.01 0.01 0.01 0.01 0.01 0.02 0.02 0.02 0.02 0.02 0.03 0.04 0.05 0.05 0.04 0.03 0.03 0.03 0.03 0.04 0.04 0.04 0.04 0.04 0.03 0.03 0.04 0.04 0.04 0.03
0.04 0.07 0.06 0.04 0.03 0.03 0.03 0.02 0.01 0.01 0.01 0.02 0.01 0.01 0.01 0.01 0.01 0.02 0.02 0.03 0.02 0.02 0.01 0.02 0.02 0.02 0.03 0.04 0.04 0.02 0.02 0.02 0.02 0.03 0.05 0.05 0.05 0.05 0.05 0.06 0.05 0.05 0.06 0.05
0.06 0.06 0.05 0.03 0.04 0.03 0.03 0.03 0.02 0.01 0.01 0.02 0.02 0.01 0.01 0.01 0.02 0.03 0.03 0.03 0.04 0.03 0.03 0.03 0.02 0.02 0.02 0.03 0.03 0.02 0.01 0.02 0.02 0.02 0.03 0.04 0.08 0.11 0.09 0.08 0.08 0.09 0.10 0.08
0.06 0.05 0.04 0.03 0.03 0.04 0.03 0.03 0.03 0.02 0.01 0.02 0.02 0.01 0.02 0.03 0.03 0.04 0.04 0.04 0.04 0.05 0.05 0.03 0.02 0.03 0.03 0.03 0.02 0.02 0.02 0.02 0.02 0.02 0.02 0.02 0.03 0.05 0.08 0.10 0.09 0.07 0.07 0.06
0.06 0.05 0.05 0.05 0.04 0.04 0.03 0.03 0.05 0.03 0.02 0.02 0.02 0.02 0.03 0.03 0.04 0.04 0.04 0.04 0.04 0.05 0.04 0.04 0.04 0.05 0.04 0.03 0.03 0.02 0.02 0.02 0.02 0.02 0.02 0.02 0.02 0.01 0.02 0.03 0.04 0.04 0.05 0.04
0.04 0.05 0.07 0.07 0.06 0.05 0.05 0.04 0.06 0.05 0.03 0.03 0.02 0.02 0.04 0.04 0.03 0.03 0.04 0.04 0.05 0.04 0.03 0.03 0.03 0.03 0.03 0.02 0.02 0.02 0.03 0.03 0.02 0.02 0.02 0.02 0.02 0.02 0.02 0.03 0.04 0.04 0.04 0.04
0.04 0.04 0.04 0.05 0.06 0.05 0.05 0.05 0.05 0.05 0.04 0.04 0.03 0.03 0.04 0.05 0.05 0.03 0.03 0.04 0.04 0.04 0.03 0.03 0.03 0.03 0.01 0.01 0.02 0.02 0.04 0.05 0.03 0.02 0.03 0.02 0.03 0.02 0.02 0.03 0.04 0.04 0.03 0.03
0.05 0.05 0.05 0.05 0.06 0.05 0.05 0.05 0.04 0.04 0.05 0.05 0.05 0.04 0.05 0.05 0.05 0.04 0.03 0.03 0.04 0.04 0.03 0.04 0.04 0.04 0.02 0.02 0.02 0.02 0.03 0.03 0.04 0.03 0.03 0.02 0.02 0.02 0.02 0.03 0.03 0.03 0.03 0.04
0.06 0.07 0.07 0.07 0.07 0.07 0.07 0.07 0.05 0.05 0.06 0.05 0.04 0.05 0.05 0.05 0.05 0.04 0.03 0.03 0.03 0.03 0.03 0.05 0.06 0.07 0.06 0.05 0.03 0.03 0.03 0.04 0.04 0.04 0.04 0.03 0.03 0.03 0.03 0.03 0.03 0.03 0.03 0.03
MSLP
1012.37 1011.22 1010.08 1009.03 1008.12 1007.34 1006.66 1006.04 1005.41 1004.73 1003.97 1003.14 1002.28 1001.45 1000.73 1000.18 999.86 999.79 999.95 1000.34 1000.89 1001.55 1002.27 1003.01 1003.75 1004.49 1005.23 1005.98 1006.75 1007.52 1008.30 1009.05 1009.75 1010.39 1010.94 1011.40 1011.79 1012.13 1012.46 1012.79 1013.14 1013.54 1013.98 1014.44
1013.59 1012.38 1011.10 1009.83 1008.62 1007.52 1006.52 1005.60 1004.72 1003.87 1003.01 1002.16 1001.34 1000.60 999.98 999.53 999.29 999.27 999.47 999.86 1000.42 1001.08 1001.81 1002.58 1003.37 1004.16 1004.96 1005.76 1006.57 1007.38 1008.18 1008.95 1009.67 1010.33 1010.92 1011.45 1011.91 1012.34 1012.75 1013.16 1013.58 1014.02 1014.47 1014.93
1014.31 1013.12 1011.80 1010.43 1009.08 1007.78 1006.56 1005.43 1004.36 1003.35 1002.40 1001.50 1000.69 999.97 999.39 998.99 998.79 998.79 999.00 999.40 999.95 1000.62 1001.37 1002.18 1003.01 1003.85 1004.70 1005.55 1006.40 1007.24 1008.05 1008.84 1009.58 1010.27 1010.91 1011.49 1012.03 1012.55 1013.04 1013.53 1014.01 1014.49 1014.95 1015.39
1014.46 1013.36 1012.11 1010.77 1009.39 1008.03 1006.72 1005.48 1004.30 1003.19 1002.16 1001.20 1000.35 999.62 999.03 998.63 998.42 998.41 998.61 999.00 999.55 1000.23 1001.00 1001.84 1002.71 1003.60 1004.50 1005.38 1006.26 1007.11 1007.93 1008.72 1009.48 1010.19 1010.87 1011.51 1012.13 1012.72 1013.29 1013.85 1014.38 1014.89 1015.36 1015.78
1014.08 1013.12 1012.01 1010.79 1009.52 1008.22 1006.94 1005.68 1004.48 1003.32 1002.23 1001.23 1000.32 999.54 998.91 998.47 998.22 998.18 998.35 998.73 999.27 999.96 1000.75 1001.62 1002.53 1003.46 1004.39 1005.30 1006.18 1007.04 1007.86 1008.65 1009.40 1010.13 1010.83 1011.51 1012.18 1012.83 1013.46 1014.07 1014.64 1015.16 1015.63 1016.03
1013.34 1012.52 1011.59 1010.56 1009.46 1008.32 1007.15 1005.97 1004.80 1003.65 1002.55 1001.50 1000.54 999.70 999.02 998.52 998.22 998.14 998.28 998.64 999.18 999.88 1000.69 1001.59 1002.53 1003.48 1004.43 1005.35 1006.23 1007.07 1007.87 1008.64 1009.38 1010.10 1010.81 1011.51 1012.20 1012.88 1013.55 1014.18 1014.77 1015.30 1015.76 1016.14
1012.40 1011.73 1010.99 1010.17 1009.28 1008.33 1007.33 1006.28 1005.20 1004.10 1003.00 1001.93 1000.94 1000.05 999.31 998.75 998.41 998.30 998.42 998.76 999.31 1000.02 1000.85 1001.77 1002.72 1003.69 1004.64 1005.55 1006.42 1007.24 1008.01 1008.74 1009.45 1010.15 1010.84 1011.53 1012.21 1012.89 1013.56 1014.20 1014.79 1015.31 1015.77 1016.14
1011.47 1010.92 1010.34 1009.73 1009.05 1008.32 1007.50 1006.60 1005.63 1004.59 1003.52 1002.46 1001.44 1000.52 999.74 999.15 998.78 998.65 998.76 999.10 999.66 1000.38 1001.23 1002.16 1003.12 1004.09 1005.03 1005.92 1006.75 1007.53 1008.26 1008.95 1009.61 1010.27 1010.92 1011.57 1012.23 1012.88 1013.53 1014.14 1014.72 1015.23 1015.68 1016.05
1010.65 1010.20 1009.77 1009.33 1008.85 1008.30 1007.65 1006.90 1006.03 1005.07 1004.05 1003.00 1001.98 1001.04 1000.25 999.65 999.28 999.15 999.27 999.63 1000.20 1000.93 1001.79 1002.72 1003.68 1004.63 1005.54 1006.39 1007.18 1007.91 1008.59 1009.23 1009.84 1010.44 1011.04 1011.64 1012.25 1012.86 1013.46 1014.04 1014.59 1015.09 1015.53 1015.91
1009.98 1009.62 1009.31 1009.02 1008.71 1008.31 1007.81 1007.18 1006.41 1005.52 1004.53 1003.51 1002.50 1001.58 1000.80 1000.22 999.86 999.75 999.90 1000.28 1000.86 1001.61 1002.46 1003.37 1004.31 1005.22 1006.09 1006.90 1007.64 1008.31 1008.94 1009.52 1010.08 1010.62 1011.17 1011.72 1012.27 1012.83 1013.38 1013.92 1014.43 1014.91 1015.35 1015.73
1009.41 1009.14 1008.95 1008.80 1008.61 1008.35 1007.97 1007.43 1006.73 1005.90 1004.96 1003.96 1002.99 1002.09 1001.35 1000.80 1000.48 1000.41 1000.58 1000.99 1001.58 1002.32 1003.15 1004.03 1004.92 1005.78 1006.59 1007.33 1008.01 1008.63 1009.20 1009.74 1010.25 1010.75 1011.25 1011.75 1012.25 1012.76 1013.26 1013.76 1014.24 1014.69 1015.12 1015.51
1008.80 1008.65 1008.60 1008.58 1008.52 1008.37 1008.07 1007.61 1006.98 1006.19 1005.29 1004.34 1003.40 1002.55 1001.85 1001.35 1001.08 1001.05 1001.26 1001.68 1002.27 1002.99 1003.78 1004.60 1005.42 1006.20 1006.93 1007.61 1008.22 1008.79 1009.32 1009.81 1010.29 1010.76 1011.23 1011.69 1012.16 1012.62 1013.08 1013.54 1013.99 1014.42 1014.83 1015.23
1008.04 1008.05 1008.16 1008.28 1008.35 1008.30 1008.10 1007.70 1007.12 1006.38 1005.52 1004.61 1003.73 1002.93 1002.29 1001.85 1001.64 1001.65 1001.89 1002.31 1002.88 1003.56 1004.29 1005.03 1005.76 1006.45 1007.09 1007.69 1008.24 1008.75 1009.24 1009.71 1010.17 1010.62 1011.07 1011.51 1011.95 1012.39 1012.82 1013.24 1013.66 1014.07 1014.47 1014.85
1007.04 1007.25 1007.54 1007.83 1008.04 1008.10 1007.98 1007.66 1007.13 1006.44 1005.63 1004.78 1003.95 1003.23 1002.66 1002.28 1002.12 1002.18 1002.43 1002.85 1003.39 1004.00 1004.65 1005.30 1005.93 1006.52 1007.06 1007.57 1008.06 1008.52 1008.97 1009.42 1009.87 1010.32 1010.77 1011.20 1011.63 1012.05 1012.46 1012.86 1013.25 1013.64 1014.01 1014.37
1005.78 1006.22 1006.72 1007.18 1007.54 1007.73 1007.70 1007.45 1006.99 1006.36 1005.61 1004.83 1004.07 1003.42 1002.93 1002.62 1002.52 1002.62 1002.89 1003.29 1003.79 1004.34 1004.90 1005.45 1005.97 1006.45 1006.90 1007.33 1007.74 1008.16 1008.58 1009.02 1009.46 1009.91 1010.36 1010.80 1011.22 1011.63 1012.02 1012.40 1012.77 1013.12 1013.47 1013.80
1004.35 1005.02 1005.73 1006.37 1006.88 1007.19 1007.26 1007.09 1006.69 1006.13 1005.45 1004.74 1004.07 1003.51 1003.10 1002.88 1002.84 1002.98 1003.27 1003.66 1004.12 1004.61 1005.09 1005.54 1005.95 1006.34 1006.69 1007.04 1007.39 1007.76 1008.16 1008.57 1009.01 1009.46 1009.91 1010.35 1010.76 1011.16 1011.53 1011.89 1012.23 1012.55 1012.87 1013.18
1002.88 1003.76 1004.65 1005.46 1006.10 1006.51 1006.67 1006.57 1006.25 1005.76 1005.16 1004.54 1003.96 1003.50 1003.19 1003.05 1003.09 1003.28 1003.59 1003.99 1004.42 1004.86 1005.27 1005.64 1005.97 1006.26 1006.54 1006.82 1007.11 1007.44 1007.80 1008.19 1008.61 1009.05 1009.49 1009.91 1010.32 1010.70 1011.05 1011.37 1011.68 1011.98 1012.27 1012.55
1001.51 1002.56 1003.60 1004.53 1005.27 1005.76 1005.98 1005.94 1005.68 1005.26 1004.75 1004.22 1003.75 1003.40 1003.20 1003.16 1003.28 1003.54 1003.90 1004.31 1004.73 1005.14 1005.50 1005.81 1006.08 1006.31 1006.52 1006.74 1006.99 1007.27 1007.59 1007.95 1008.34 1008.76 1009.17 1009.57 1009.94 1010.29 1010.61 1010.91 1011.19 1011.46 1011.72 1011.98
1000.38 1001.54 1002.67 1003.67 1004.46 1004.98 1005.23 1005.23 1005.02 1004.67 1004.24 1003.81 1003.46 1003.23 1003.15 1003.23 1003.45 1003.78 1004.20 1004.65 1005.09 1005.48 1005.83 1006.11 1006.34 1006.52 1006.69 1006.86 1007.06 1007.30 1007.58 1007.90 1008.25 1008.61 1008.98 1009.34 1009.67 1009.98 1010.27 1010.53 1010.78 1011.03 1011.28 1011.53
999.56 1000.77 1001.93 1002.93 1003.71 1004.22 1004.48 1004.49 1004.31 1004.02 1003.67 1003.35 1003.12 1003.02 1003.07 1003.27 1003.60 1004.03 1004.52 1005.02 1005.49 1005.91 1006.25 1006.52 1006.73 1006.89 1007.03 1007.16 1007.32 1007.52 1007.75 1008.01 1008.31 1008.62 1008.94 1009.24 1009.52 1009.79 1010.04 1010.27 1010.50 1010.73 1010.97 1011.22
999.02 1000.23 1001.35 1002.30 1003.03 1003.50 1003.72 1003.73 1003.58 1003.34 1003.08 1002.88 1002.77 1002.81 1003.00 1003.33 1003.78 1004.31 1004.87 1005.43 1005.94 1006.38 1006.74 1007.01 1007.21 1007.36 1007.48 1007.58 1007.71 1007.86 1008.04 1008.25 1008.49 1008.74 1008.99 1009.24 1009.47 1009.70 1009.91 1010.13 1010.34 1010.57 1010.82 1011.08
998.71 999.86 1000.89 1001.75 1002.39 1002.78 1002.96 1002.96 1002.84 1002.66 1002.50 1002.42 1002.45 1002.64 1002.96 1003.42 1003.99 1004.61 1005.25 1005.86 1006.41 1006.88 1007.24 1007.52 1007.72 1007.85 1007.95 1008.04 1008.13 1008.24 1008.38 1008.54 1008.72 1008.91 1009.11 1009.30 1009.49 1009.69 1009.88 1010.08 1010.30 1010.55 1010.81 1011.10
998.52 999.57 1000.48 1001.22 1001.75 1002.06 1002.20 1002.19 1002.11 1002.02 1001.97 1002.02 1002.20 1002.53 1002.99 1003.58 1004.24 1004.94 1005.64 1006.29 1006.86 1007.33 1007.70 1007.97 1008.16 1008.28 1008.37 1008.43 1008.50 1008.58 1008.68 1008.80 1008.94 1009.08 1009.24 1009.40 1009.56 1009.74 1009.92 1010.13 1010.37 1010.64 1010.94 1011.26
998.36 999.28 1000.06 1000.67 1001.09 1001.34 1001.44 1001.46 1001.44 1001.44 1001.52 1001.72 1002.05 1002.51 1003.11 1003.79 1004.54 1005.29 1006.02 1006.68 1007.25 1007.71 1008.06 1008.31 1008.48 1008.59 1008.66 1008.71 1008.76 1008.82 1008.90 1009.00 1009.11 1009.23 1009.37 1009.51 1009.67 1009.85 1010.05 1010.28 1010.54 1010.85 1011.18 1011.54
998.19 998.96 999.61 1000.10 1000.43 1000.63 1000.73 1000.79 1000.86 1000.98 1001.20 1001.54 1002.02 1002.62 1003.32 1004.09 1004.88 1005.66 1006.38 1007.02 1007.56 1007.98 1008.29 1008.51 1008.66 1008.74 1008.80 1008.85 1008.89 1008.96 1009.04 1009.13 1009.25 1009.37 1009.51 1009.67 1009.84 1010.03 1010.26 1010.52 1010.82 1011.16 1011.54 1011.94
998.02 998.65 999.16 999.54 999.81 999.99 1000.12 1000.26 1000.43 1000.69 1001.05 1001.54 1002.14 1002.85 1003.63 1004.45 1005.26 1006.02 1006.71 1007.30 1007.77 1008.14 1008.40 1008.57 1008.68 1008.76 1008.81 1008.86 1008.93 1009.02 1009.13 1009.25 1009.40 1009.56 1009.73 1009.91 1010.11 1010.34 1010.60 1010.90 1011.23 1011.60 1012.01 1012.43
997.91 998.40 998.80 999.10 999.33 999.52 999.70 999.93 1000.22 1000.61 1001.11 1001.72 1002.44 1003.22 1004.05 1004.87 1005.66 1006.38 1007.00 1007.51 1007.91 1008.20 1008.40 1008.53 1008.62 1008.69 1008.75 1008.84 1008.95 1009.09 1009.25 1009.44 1009.64 1009.85 1010.07 1010.31 1010.55 1010.82 1011.11 1011.43 1011.78 1012.17 1012.59 1013.02
Thickness
5803 5816 5823 5823 5824 5828 5824 5823 5816 5821 5828 5836 5844 5844 5845 5847 5844 5841 5839 5836 5838 5836 5833 5829 5825 5820 5816 5812 5809 5805 5799 5793 5789 5786 5783 5780 5777 5774 5772 5770 5768 5766 5764 5763
5785 5802 5810 5811 5819 5823 5823 5824 5822 5824 5826 5845 5849 5847 5842 5839 5837 5833 5831 5832 5833 5831 5828 5824 5821 5817 5814 5810 5807 5803 5796 5792 5789 5785 5781 5778 5775 5772 5770 5768 5766 5764 5761 5760
5765 5787 5790 5786 5809 5816 5818 5825 5822 5813 5822 5837 5832 5831 5831 5834 5833 5831 5829 5828 5826 5825 5823 5820 5819 5816 5811 5808 5805 5800 5794 5790 5787 5783 5778 5775 5774 5770 5767 5765 5763 5760 5759 5757
5757 5761 5747 5786 5822 5823 5817 5818 5824 5823 5826 5830 5828 5829 5833 5834 5830 5826 5826 5824 5822 5822 5819 5818 5817 5814 5810 5807 5802 5797 5792 5788 5785 5781 5776 5773 5771 5767 5765 5763 5760 5758 5756 5754
5745 5744 5756 5782 5803 5810 5803 5801 5816 5815 5818 5823 5825 5822 5820 5827 5828 5824 5822 5821 5819 5819 5817 5814 5812 5810 5806 5802 5798 5794 5789 5786 5783 5779 5774 5770 5767 5765 5763 5760 5757 5755 5753 5751
5736 5730 5735 5767 5799 5814 5802 5782 5807 5809 5807 5810 5809 5795 5799 5815 5819 5818 5816 5815 5813 5812 5810 5807 5806 5805 5800 5796 5793 5790 5788 5785 5782 5778 5773 5769 5765 5762 5760 5758 5755 5753 5750 5748
5726 5727 5744 5776 5795 5797 5767 5770 5797 5801 5799 5798 5792 5793 5801 5807 5807 5807 5807 5806 5806 5803 5801 5799 5799 5797 5791 5790 5788 5788 5787 5783 5779 5775 5771 5767 5763 5760 5757 5754 5751 5749 5746 5745
5723 5719 5731 5771 5778 5768 5768 5784 5788 5788 5789 5787 5788 5792 5794 5794 5794 5795 5794 5795 5795 5792 5791 5791 5792 5789 5785 5784 5785 5785 5782 5778 5775 5772 5769 5766 5759 5755 5753 5750 5746 5744 5741 5739
5726 5729 5746 5761 5762 5767 5774 5771 5774 5776 5777 5777 5777 5778 5781 5781 5782 5783 5784 5784 5784 5782 5781 5782 5783 5782 5778 5778 5779 5777 5774 5771 5769 5767 5764 5761 5755 5751 5747 5744 5741 5739 5737 5734
5720 5729 5739 5746 5753 5758 5761 5761 5765 5767 5768 5769 5766 5768 5769 5770 5771 5772 5773 5773 5773 5771 5770 5770 5773 5774 5773 5772 5771 5769 5766 5763 5761 5758 5756 5753 5750 5748 5743 5740 5737 5735 5732 5730
5705 5717 5726 5733 5738 5743 5748 5752 5753 5756 5758 5758 5757 5756 5758 5759 5760 5761 5762 5762 5762 5760 5759 5760 5763 5764 5766 5766 5764 5760 5758 5756 5754 5752 5749 5744 5741 5739 5737 5735 5733 5730 5728 5726
5692 5705 5709 5715 5726 5732 5732 5735 5740 5742 5744 5749 5748 5747 5748 5749 5751 5752 5752 5752 5751 5750 5751 5752 5753 5755 5757 5758 5756 5752 5749 5748 5747 5745 5741 5738 5734 5730 5728 5728 5726 5724 5722 5719
5694 5700 5703 5709 5716 5721 5721 5725 5730 5732 5734 5736 5738 5739 5739 5739 5741 5742 5742 5742 5742 5741 5742 5743 5744 5745 5747 5748 5747 5745 5742 5741 5740 5738 5735 5732 5728 5725 5721 5717 5717 5715 5714 5711
5691 5692 5690 5697 5701 5708 5710 5715 5720 5723 5726 5728 5728 5730 5731 5730 5731 5731 5732 5734 5735 5734 5734 5734 5734 5736 5738 5739 5738 5736 5736 5734 5733 5732 5730 5727 5725 5722 5719 5715 5711 5709 5705 5702
5682 5685 5686 5691 5694 5698 5701 5705 5706 5708 5712 5715 5718 5718 5719 5719 5720 5722 5725 5727 5726 5726 5726 5726 5725 5727 5730 5730 5728 5727 5727 5727 5727 5726 5724 5723 5721 5718 5716 5712 5709 5705 5702 5696
5673 5677 5679 5680 5683 5687 5691 5694 5695 5698 5702 5704 5705 5707 5709 5711 5712 5714 5715 5716 5714 5715 5716 5716 5717 5719 5721 5720 5719 5718 5719 5719 5718 5718 5718 5716 5714 5712 5709 5706 5704 5700 5697 5693
5662 5664 5668 5671 5675 5680 5683 5687 5689 5691 5693 5695 5696 5698 5700 5701 5701 5702 5704 5706 5706 5707 5708 5708 5708 5710 5711 5711 5710 5711 5712 5711 5709 5709 5710 5709 5707 5705 5703 5700 5697 5695 5692 5689
5661 5663 5666 5668 5671 5674 5677 5680 5682 5684 5686 5689 5691 5691 5691 5691 5690 5691 5693 5695 5695 5695 5697 5699 5700 5700 5700 5701 5701 5703 5703 5703 5703 5702 5701 5701 5699 5698 5696 5694 5690 5687 5684 5681
5657 5658 5661 5663 5666 5668 5670 5672 5675 5678 5680 5681 5681 5681 5682 5682 5682 5682 5683 5683 5683 5683 5686 5689 5688 5690 5691 5692 5691 5692 5692 5694 5694 5694 5693 5691 5690 5689 5687 5685 5683 5680 5678 5674
5649 5651 5654 5656 5658 5660 5662 5665 5668 5670 5672 5673 5672 5672 5671 5673 5674 5673 5673 5673 5675 5677 5678 5679 5679 5681 5682 5683 5681 5683 5683 5684 5684 5684 5684 5683 5682 5681 5679 5678 5676 5673 5670 5667
5641 5643 5646 5647 5650 5653 5655 5657 5659 5660 5663 5664 5663 5663 5663 5664 5665 5665 5664 5664 5667 5669 5670 5669 5670 5671 5672 5672 5671 5673 5674 5675 5675 5674 5673 5673 5672 5671 5670 5670 5668 5665 5662 5658
5635 5637 5639 5641 5643 5644 5647 5649 5651 5652 5654 5654 5656 5656 5656 5656 5657 5658 5658 5658 5659 5659 5660 5661 5662 5661 5662 5661 5663 5665 5665 5665 5665 5665 5664 5663 5661 5661 5661 5660 5659 5656 5654 5651
5629 5631 5632 5634 5636 5638 5640 5642 5643 5644 5646 5647 5648 5648 5648 5649 5651 5650 5649 5652 5653 5651 5651 5652 5651 5650 5650 5652 5653 5654 5655 5655 5655 5656 5656 5655 5655 5654 5653 5652 5650 5648 5645 5642
5624 5625 5627 5629 5631 5632 5632 5635 5637 5638 5640 5641 5642 5642 5642 5642 5643 5646 5646 5644 5644 5642 5643 5642 5641 5640 5639 5642 5643 5644 5646 5647 5647 5648 5649 5649 5648 5646 5645 5643 5641 5638 5636 5633
5621 5622 5624 5625 5626 5627 5629 5631 5632 5632 5634 5635 5637 5638 5639 5639 5638 5639 5640 5639 5637 5635 5636 5635 5633 5631 5632 5636 5637 5637 5638 5640 5641 5642 5640 5640 5640 5639 5638 5636 5633 5630 5627 5625
5619 5620 5621 5622 5624 5625 5627 5627 5627 5628 5629 5630 5632 5633 5633 5634 5633 5634 5633 5633 5632 5630 5631 5631 5631 5628 5629 5632 5632 5633 5633 5633 5633 5632 5632 5633 5633 5632 5629 5626 5624 5622 5619 5616
5619 5619 5619 5620 5622 5623 5624 5624 5625 5625 5627 5627 5626 5627 5628 5628 5629 5629 5629 5628 5628 5627 5627 5627 5627 5627 5626 5626 5627 5627 5627 5626 5626 5626 5625 5625 5623 5622 5619 5616 5614 5611 5608 5605